Regional Weather Roundup
Issued by NWS

Home | Current Version | Previous Version | Text Only | Print | Product List | Glossary Off
Versions: 1 2 3 4 5 6 7 8 9 10 11 12 13 14 15 16 17 18 19 20 21 22 23 24 25 26 27 28 29 30 31 32 33 34 35 36 37 38 39 40 41 42 43 44 45 46 47 48 49 50

000
ASUS43 KIND 280009
RWRIN

WEATHER ROUNDUP FOR INDIANA
NATIONAL WEATHER SERVICE INDIANAPOLIS IN
700 PM EST SAT DEC 27 2014

NOTE: "FAIR" INDICATES FEW OR NO CLOUDS BELOW 12,000 FEET WITH NO
SIGNIFICANT WEATHER AND/OR OBSTRUCTIONS TO VISIBILITY.

* - STATION DOES NOT REPORT WEATHER SUCH AS PRECIPITATION OR FOG.

+ - STATION NOT QUALITY CONTROLLED BY THE NATIONAL WEATHER SERVICE.
    USE DATA WITH CAUTION...ESPECIALLY DEWPOINT AND RELATIVE
    HUMIDITY OBSERVATIONS.

INZ001>003-010>013-019-020-280100-
NORTHWEST INDIANA

CITY           SKY/WX    TMP DP  RH WIND       PRES   REMARKS
GARY /AIRPORT/ CLOUDY    37  27  65 W17G35    30.08
KNOX *+        CLOUDY    37  30  78 W12       30.08R
LA PORTE +     CLOUDY    38  32  80 W6        30.06R
MICHIGAN CITY+ CLOUDY    36  27  69 W10G18    30.07S
MONTICELLO +   LGT RAIN  36  33  89 W10G16    30.09S
RENSSELAER +   CLOUDY    36  34  93 W12G17    30.08F
VALPARAISO     CLOUDY    35  30  82 W15       30.07R WCI  25
6HR MIN TEMP:  35; 6HR MAX TEMP:  48; 6HR PCP: TRACE;


$$

LMZ046-743>745-280100-
SOUTHERN LAKE MICHIGAN

STATION/POSITION TIME  TEMP WIND        PRES
                       AIR  DIR/SP/G
                 (UTC) (F)  (DEG/KT/KT) (MB)
MICHIGAN CITY    0000   36  240/ 25/ 27   N/A

$$

INZ004-005-014>016-021>024-280100-
NORTH CENTRAL INDIANA

CITY           SKY/WX    TMP DP  RH WIND       PRES   REMARKS
GOSHEN         CLOUDY    38  34  85 W15       30.05R
6HR MIN TEMP:  38; 6HR MAX TEMP:  48; 6HR PCP: TRACE;

LOGANSPORT +   DRIZZLE   36  34  93 W9        30.10R
PERU/GRISSOM   LGT RAIN  40  40 100 W15       30.08R
6HR MIN TEMP:  40; 6HR MAX TEMP:  47; 6HR PCP:  0.01;

ROCHESTER +    LGT RAIN  37  36  93 W10       30.08R
SOUTH BEND     CLOUDY    38  31  76 W16       30.07R
6HR MIN TEMP:  38; 6HR MAX TEMP:  49; 6HR PCP: TRACE;

WARSAW +       LGT RAIN  37  34  87 W12       30.06R

$$

INZ006>009-017-018-025>027-280100-
NORTHEAST INDIANA

CITY           SKY/WX    TMP DP  RH WIND       PRES   REMARKS
ANGOLA *+      CLOUDY    39  34  81 W10       30.00S
AUBURN +       CLOUDY    43  39  87 W10       30.02R
FORT WAYNE     CLOUDY    43  40  89 W18       30.04R
6HR MIN TEMP:  43; 6HR MAX TEMP:  47; 6HR PCP: TRACE;

HUNTINGTON +   DRIZZLE   41  37  84 W10       30.06R
6HR MIN TEMP:  41; 6HR MAX TEMP:  47;


$$

INZ028-029-035-036-043>045-051>053-280100-
WEST CENTRAL INDIANA

CITY           SKY/WX    TMP DP  RH WIND       PRES   REMARKS
GREENCASTLE +  CLOUDY    41  37  87 NW7G16    30.09S
LAFAYETTE      MIX PCPN  37  34  89 W12       30.09S
6HR MIN TEMP:  37; 6HR MAX TEMP:  47; 6HR PCP:  0.02;

TERRE HAUTE    LGT RAIN  40  36  86 NW9       30.11R
6HR MIN TEMP:  40; 6HR MAX TEMP:  48; 6HR PCP:  0.03;


$$

INZ030>032-037>040-046>048-054>057-064-065-280100-
CENTRAL INDIANA

CITY           SKY/WX    TMP DP  RH WIND       PRES   REMARKS
CP ATTERBURY + CLOUDY    46  45  93 MISG      30.09S
COLUMBUS       LGT RAIN  46  45  93 S8        30.09F
FRANKFORT +    MOCLDY    39  39 100 W12       30.09F
INDIANAPOLIS   DRIZZLE   44  43  96 NW13      30.08R FOG
6HR MIN TEMP:  45; 6HR MAX TEMP:  46; 6HR PCP:  0.02;

-EAGLE CREEK   CLOUDY    42  42 100 NW9       30.08R
6HR MIN TEMP:  42; 6HR MAX TEMP:  47; 6HR PCP:  0.01;

KOKOMO *+      CLOUDY    41  37  87 W18       30.09R
MARION +       CLOUDY    43  42  96 W17G25    30.07R FOG
MT COMFORT *+  CLOUDY    46 N/A N/A SW6       30.07S
SHELBYVILLE    CLOUDY    47  45  93 SW7       30.07S FOG
6HR MIN TEMP:  47; 6HR MAX TEMP:  48; 6HR PCP:  0.01;

ZIONSVILLE +   LGT RAIN  42  39  89 NW14      30.09R
6HR MIN TEMP:  42; 6HR MAX TEMP:  47;


$$

INZ033-034-041-042-049-050-058-059-280100-
EAST CENTRAL INDIANA

CITY           SKY/WX    TMP DP  RH WIND       PRES   REMARKS
MUNCIE         CLOUDY    47  46  97 SW8       30.05R FOG
6HR MIN TEMP:  46; 6HR MAX TEMP:  47; 6HR PCP:  0.03;


$$

INZ060-061-067>069-081>083-085>088-280100-
SOUTHWEST INDIANA

CITY           SKY/WX    TMP DP  RH WIND       PRES   REMARKS
EVANSVILLE     CLOUDY    50  47  89 SW5       30.10S FOG
6HR MIN TEMP:  50; 6HR MAX TEMP:  50; 6HR PCP:  0.10;

HUNTINGBURG *+ CLOUDY    46  45  93 S7        30.10R
6HR MIN TEMP:  46; 6HR MAX TEMP:  48; 6HR PCP:  0.07;

WASHINGTON +   DRIZZLE   47  44  87 SW3       30.07F
6HR MIN TEMP:  47; 6HR MAX TEMP:  48; 6HR PCP:  0.05;


$$

INZ062-063-066-070>080-084-089>092-280100-
SOUTH CENTRAL AND SOUTHEAST INDIANA

CITY           SKY/WX    TMP DP  RH WIND       PRES   REMARKS
BLOOMINGTON    LGT RAIN  47  46  97 SW3       30.08R FOG
6HR MIN TEMP:  47; 6HR MAX TEMP:  47; 6HR PCP:  0.04;

SEYMOUR +      CLOUDY    48  48 100 SE3       30.07F

$$




USA.gov is the U.S. government's official web portal to all federal, state and local government web resources and services.